小惑星2010 OM101

2010 OM101

English version
Home page
Updated on August 21, 2010

---------------------------------------------------------------------

・ プロフィール

発見日 2010年7月28日
発見光度 20等
発見者 Wide Field Infrared Survey Explorer (NASA)

・ 軌道要素

The following orbital elements are taken from MPEC 2010-P23:

Epoch 2010 July 23.0 TT = JDT 2455400.5                 MPC
M 359.92919              (2000.0)            P               Q
n   0.00100075     Peri.  147.92154     +0.76311192     +0.05889013
a  98.9887383      Node   132.67793     -0.59679556     -0.31790450
e   0.9784393      Incl.  118.90688     +0.24798238     -0.94629207
P 985              H   16.3           G   0.15
From 22 observations 2010 July 28-Aug. 4.  E-assumed.

・ 光度変化

        H = 16.3  G = 0.15

---------------------------------------------------------------------

軌道要素はMPCのEphemerides and Orbital Elementsに掲載されたものです。
光度グラフはComet for Windowsで作成したものです。

---------------------------------------------------------------------

Copyright(C) Seiichi Yoshida (comet@aerith.net). All rights reserved.